カタログに戻る

STARLINK-32486

運用中通信VLEO
NORAD 61854·PAYLOAD·🇺🇸 United States

打ち上げ Nov 7, 2024 から Cape Canaveral Space Force Station

Loading…

次のパス (今後24時間)

TLE

最新Source: CelesTrak SupGP

元期: Sep 14, 2026, 21:44 UTC

1 61854C 24202K   26257.90604167  .00029139  00000+0  10558-2 0  2570
2 61854  42.9992 249.1709 0001414 263.9905 267.4405 15.27553459    12

AllMySatでSTARLINK-32486をリアルタイム追跡

Download on the App Store